Abilene, TX

1:49 PM CDT on October 21, 2017 (GMT -0500)
Abilene Regional

Weather History for KABI - January, 2013

Change the Weather History Date:

Friday, January 11, 2013

  Actual Average Record
Temperature  
Mean Temperature 60 °F 44 °F  
Max Temperature 72 °F 56 °F 82 °F (1907)
Min Temperature 47 °F 33 °F 1 °F (1918)
Degree Days  
Heating Degree Days 5 20  
Month to date heating degree days 249 230  
Since 1 July heating degree days 1084 1275  
Cooling Degree Days 0 0  
Month to date cooling degree days 0 0  
Year to date cooling degree days 0 0  
Growing Degree Days 12 (Base 50)    
Moisture  
Dew Point 46 °F    
Average Humidity 59    
Maximum Humidity 77    
Minimum Humidity 41    
Precipitation  
Precipitation 0.00 in 0.02 in 0.83 in (1939)
Month to date precipitation 1.31 0.32  
Year to date precipitation 1.31 0.32  
Sea Level Pressure  
Sea Level Pressure 29.77 in    
Wind  
Wind Speed 15 mph (South)    
Max Wind Speed 30 mph    
Max Gust Speed 39 mph    
Visibility 10 miles    
Events      
T = Trace of Precipitation, MM = Missing Value Source: NWS Daily Summary

Daily Weather History Graph

Daily Weather History Graph

Search for Another Location

Airport or City:

Trip Planner

Search our weather history database for the weather conditions in past years. The results will help you decide how hot, cold, wet, or windy it might be!

Date:

Astronomy

Jan. 11, 2013 Rise Set
Actual Time 7:40 AM CST 5:52 PM CST
Civil Twilight 7:14 AM CST 6:19 PM CST
Nautical Twilight 6:43 AM CST 6:49 PM CST
Astronomical Twilight 6:14 AM CST 7:19 PM CST
Moon 7:17 AM CST (1/11) 6:09 PM CST (1/11)
Length of Visible Light 11h 05m
Length of Day
10h 11m
Waning Crescent, 0% of the Moon is Illuminated
Jan 11
Waning Crescent
Jan 11
New
Jan 18
First Quarter
Jan 26
Full
Feb 3
Last Quarter

Hourly Weather History & Observations

Time (CST) Temp. Dew Point Humidity Pressure Visibility Wind Dir Wind Speed Gust Speed Precip Events Conditions
12:52 AM 50.0 °F 41.0 °F 71% 29.87 in 10.0 mi SSW 12.7 mph - N/A   Clear
1:52 AM 50.0 °F 41.0 °F 71% 29.86 in 10.0 mi SSW 17.3 mph - N/A   Clear
2:52 AM 51.1 °F 41.0 °F 68% 29.84 in 10.0 mi South 15.0 mph - N/A   Clear
3:52 AM 51.1 °F 41.0 °F 68% 29.83 in 10.0 mi South 16.1 mph 24.2 mph N/A   Clear
4:52 AM 50.0 °F 41.0 °F 71% 29.81 in 10.0 mi SSW 17.3 mph 24.2 mph N/A   Clear
5:52 AM 51.1 °F 39.9 °F 66% 29.79 in 10.0 mi South 19.6 mph 26.5 mph N/A   Clear
6:52 AM 52.0 °F 41.0 °F 66% 29.81 in 10.0 mi South 16.1 mph 23.0 mph N/A   Clear
7:52 AM 51.1 °F 41.0 °F 68% 29.81 in 10.0 mi South 15.0 mph 28.8 mph N/A   Clear
8:52 AM 53.1 °F 44.1 °F 71% 29.83 in 10.0 mi South 23.0 mph 29.9 mph N/A   Clear
9:52 AM 55.0 °F 48.0 °F 77% 29.82 in 10.0 mi SSW 26.5 mph 35.7 mph N/A   Clear
10:52 AM 59.0 °F 50.0 °F 72% 29.80 in 10.0 mi South 25.3 mph 35.7 mph N/A   Clear
11:52 AM 62.1 °F 51.1 °F 67% 29.79 in 10.0 mi South 18.4 mph 26.5 mph N/A   Clear
12:52 PM 68.0 °F 50.0 °F 52% 29.73 in 10.0 mi SSW 25.3 mph 33.4 mph N/A   Clear
1:52 PM 71.1 °F 48.0 °F 44% 29.70 in 10.0 mi SSW 21.9 mph 31.1 mph N/A   Clear
2:52 PM 70.0 °F 48.0 °F 46% 29.70 in 10.0 mi SSW 15.0 mph 27.6 mph N/A   Clear
3:52 PM 71.1 °F 46.0 °F 41% 29.69 in 10.0 mi SSW 20.7 mph 28.8 mph N/A   Clear
4:52 PM 69.1 °F 46.9 °F 45% 29.72 in 10.0 mi SSW 10.4 mph - N/A   Clear
5:52 PM 64.9 °F 46.9 °F 52% 29.72 in 10.0 mi South 6.9 mph - N/A   Clear
6:52 PM 60.1 °F 48.0 °F 64% 29.73 in 10.0 mi ESE 3.5 mph - N/A   Clear
7:52 PM 62.1 °F 46.9 °F 58% 29.75 in 10.0 mi South 12.7 mph - N/A   Clear
8:52 PM 61.0 °F 48.0 °F 62% 29.75 in 10.0 mi South 9.2 mph - N/A   Clear
9:52 PM 61.0 °F 48.0 °F 62% 29.76 in 10.0 mi SSW 6.9 mph - N/A   Clear
10:52 PM 59.0 °F 48.9 °F 69% 29.77 in 10.0 mi SSE 4.6 mph - N/A   Clear
11:52 PM 61.0 °F 50.0 °F 67% 29.74 in 10.0 mi South 9.2 mph - N/A   Partly Cloudy